Location: Mantova
(45.1500°N, 10.8000°E)
Time: 09:11:00
(UTC+02:00)

ISS - Visible Passes

Search period start: 08 May 2021 00:00
Search period end: 18 May 2021 00:00
Orbit: 418 x 421 km, 51.6° (Epoch: 08 May)

Date Brightness Start Highest point End Pass type
(mag) Time Alt. Az. Time Alt. Az. Time Alt. Az.
08 May -2.3 02:49:25 37° N 02:49:25 37° N 02:52:14 10° NE visible
08 May -1.6 04:23:31 10° WNW 04:26:26 26° N 04:29:21 10° ENE visible
09 May -1.4 02:03:26 22° NE 02:03:26 22° NE 02:04:50 10° NE visible
09 May -1.7 03:36:23 13° WNW 03:38:50 26° N 03:41:45 10° ENE visible
09 May -2.2 05:13:03 10° NW 05:16:14 37° NNE 05:19:25 10° E visible
10 May -1.8 02:50:22 25° NW 02:51:14 28° N 02:54:14 10° NE visible
10 May -1.8 04:25:37 10° NW 04:28:41 31° NNE 04:31:45 10° ENE visible
11 May -1.7 02:04:21 29° NNE 02:04:21 29° NNE 02:06:45 10° NE visible
11 May -1.6 03:38:08 10° NW 03:41:06 27° N 03:44:05 10° ENE visible
11 May -3.4 05:14:56 10° WNW 05:18:19 69° NNE 05:21:42 10° ESE visible
12 May -1.1 01:18:16 18° NE 01:18:16 18° NE 01:19:19 10° NE visible
12 May -1.5 02:51:12 14° NW 02:53:31 26° N 02:56:26 10° ENE visible
12 May -2.7 04:27:33 10° NW 04:30:50 49° NNE 04:34:08 10° E visible
13 May -1.6 02:05:02 23° NNW 02:05:54 26° N 02:08:50 10° ENE visible
13 May -2.2 03:40:08 10° NW 03:43:19 37° NNE 03:46:30 10° E visible
13 May -3.5 05:16:56 10° WNW 05:20:13 49° SW 05:23:30 10° SE visible
14 May -1.6 01:18:38 27° N 01:18:38 27° N 01:21:18 10° NE visible
14 May -1.8 02:52:41 10° NW 02:55:46 31° NNE 02:58:49 10° ENE visible
14 May -3.9 04:29:26 10° WNW 04:32:49 79° SSW 04:36:12 10° SE visible
14 May -1.8 21:16:14 10° SSE 21:17:24 11° SE 21:18:33 10° ESE visible
14 May -3.9 22:50:20 10° SW 22:53:41 75° SSE 22:55:40 23° ENE visible
15 May -1.9 00:27:40 10° WNW 00:30:44 31° NNW 00:33:49 10° NE visible
15 May -1.6 02:05:12 10° NW 02:08:10 27° N 02:11:09 10° ENE visible
15 May -3.5 03:42:00 10° WNW 03:45:23 70° NNE 03:48:45 10° ESE visible
15 May -3.6 22:03:03 10° SW 22:06:17 47° SE 22:09:33 10° ENE visible
15 May -2.3 23:40:00 10° W 23:43:10 38° NNW 23:46:23 10° NE visible
16 May -1.5 01:17:40 10° WNW 01:20:34 26° N 01:23:30 10° ENE visible
16 May -2.8 02:54:36 10° NW 02:57:54 49° NNE 03:01:12 10° E visible
16 May -3.0 04:31:35 10° WNW 04:34:37 30° SW 04:37:37 10° SSE visible
16 May -2.9 21:16:01 10° SSW 21:18:57 29° SE 21:21:56 10° ENE visible
16 May -2.9 22:52:22 10° W 22:55:39 50° NNW 22:58:57 10° NE visible
17 May -1.5 00:30:04 10° WNW 00:32:58 26° N 00:35:53 10° ENE visible
17 May -2.3 02:07:11 10° NW 02:10:22 38° NNE 02:13:33 10° E visible
17 May -3.6 03:43:59 10° WNW 03:47:16 49° SW 03:50:32 10° SE visible
17 May -3.5 22:04:49 10° WSW 22:08:09 72° NNW 22:11:33 10° ENE visible
17 May -1.6 23:42:24 10° WNW 23:45:22 28° N 23:48:20 10° NE visible
